Flag for U.S.A. Weather past 2 weeks in Daytona Beach, Florida, U.S.A.

Now
78 °F

Overcast.


Feels Like: 81 °F
Forecast: 75 / 82 °F
Wind: No wind

Location: Daytona Beach Regional Airport

Current Time: Aug 30, 2015 at 6:24:53 AM

Latest Report: Aug 30, 2015 at 5:53 AM


Visibility: 10 mi

Pressure: 29.99 "Hg

Humidity: 87%

Dew point: 74 °F

Location of Daytona BeachLocation

Historic Weather in Daytona Beach — Graph

°F

Daytona Beach temperature yesterday

Maximum temperature yesterday: 87 °F (at 12:53 PM)
Minimum temperature yesterday: 72 °F (at 11:53 PM)
Average temperature yesterday: 80 °F

Past Weeks' High & Low Weather Summary

 TemperatureHumidityPressure
High93 °F (Aug 25, 1:53 PM)100% (Aug 29, 4:53 AM)30.13 "Hg (Aug 29, 4:53 AM)
Low72 °F (Aug 27, 6:53 AM)49% (Aug 25, 1:53 PM)29.88 "Hg (Aug 25, 5:53 PM)
Average81 °F83%30.01 "Hg
* Reported Aug 15 4:53 AM — Aug 30 4:53 AM, Daytona Beach, Weather by CustomWeather, © 2015

Note: Actual official high and low records may vary slightly from our data, if they occured in-between our weather recording intervals... More about our weather records

Advertising

Daytona Beach weather history for previous 24 hours

 ConditionsComfort  
Time TempWeatherWind HumidityBarometerVisibility
4:53 AM
Sun, Aug 30
78 °FMostly cloudy.8 mph87%29.98 "Hg10 mi
3:53 AM77 °FLight rain. Overcast.9 mph90%29.98 "Hg10 mi
2:53 AM75 °FMostly cloudy.7 mph90%30.00 "Hg10 mi
1:53 AM75 °FLight rain. Partly cloudy.12 mph94%30.03 "Hg9 mi
12:53 AM73 °FLight rain. Partly cloudy.5 mph97%30.10 "Hg10 mi
11:53 PM
Sat, Aug 29
72 °FThunderstorms. Mostly cloudy.12 mph97%30.11 "Hg7 mi
10:53 PM75 °FThunderstorms. Mostly cloudy.14 mph94%30.11 "Hg8 mi
9:53 PM76 °FThunderstorms. Overcast.No wind91%30.06 "Hg10 mi
8:53 PM75 °FLight rain. Fog.3 mph88%30.05 "Hg6 mi
7:53 PM83 °FCloudy.8 mph77%30.04 "Hg10 mi
6:53 PM83 °FBroken clouds.8 mph77%30.04 "Hg10 mi
5:53 PM84 °FBroken clouds.8 mph77%30.04 "Hg10 mi
4:53 PM84 °FCloudy.7 mph77%30.03 "Hg10 mi
3:53 PM85 °FThunderstorms. Cloudy.8 mph75%30.04 "Hg10 mi
2:53 PM86 °FMostly cloudy.12 mph72%30.06 "Hg10 mi
1:53 PM86 °FBroken clouds.8 mph72%30.09 "Hg10 mi
12:53 PM87 °FBroken clouds.10 mph67%30.10 "Hg10 mi
11:53 AM83 °FLight rain. Broken clouds.5 mph85%30.10 "Hg9 mi
10:53 AM86 °FBroken clouds.No wind67%30.10 "Hg10 mi
9:53 AM84 °FPartly sunny.No wind74%30.10 "Hg10 mi
8:53 AM83 °FPartly sunny.No wind79%30.10 "Hg10 mi
7:53 AM77 °FPassing clouds.No wind94%30.08 "Hg10 mi
6:53 AM75 °FPartly cloudy.No wind96%30.06 "Hg9 mi
Weather by CustomWeather, © 2015

See weather overviewHow to use our weather pages